Regional Weather Roundup
Issued by NWS

Home | Current Version | Previous Version | Text Only | Print | Product List | Glossary Off
Versions: 1 2 3 4 5 6 7 8 9 10 11 12 13 14 15 16 17 18 19 20 21 22 23 24 25 26 27 28 29 30 31 32 33 34 35 36 37 38 39 40 41 42 43 44 45 46 47 48 49 50

000
ASUS43 KOAX 131302
RWRNE

WEATHER ROUNDUP FOR NEBRASKA
NATIONAL WEATHER SERVICE OMAHA NE
700 AM CST WED DEC 13 2017

NOTES: SATELLITE DATA IS BEING USED TO AUGMENT CLOUD COVER ABOVE
       12000 FEET.
       "FAIR" INDICATES FEW OR NO CLOUDS BELOW 12,000 FEET WITH NO
       SIGNIFICANT WEATHER AND/OR OBSTRUCTIONS TO VISIBILITY.


NEZ001>004-019>022-054>056-131400-
NEBRASKA PANHANDLE

CITY           SKY/WX    TMP DP  RH WIND       PRES   REMARKS
SCOTTSBLUFF    CLEAR     37  14  38 NW10      30.08R WCI  30
ALLIANCE       CLEAR     42  17  36 NW22      30.01R
CHADRON        CLOUDY    40  15  36 NW21G28   30.05R WCI  30
GORDON         FAIR      39  19  44 NW15      29.98S WCI  31
KIMBALL        CLEAR     37  11  33 NW12      30.10R WCI  30
SIDNEY         CLOUDY    38  10  31 NW13      30.07R WCI  30
$$

NEZ057>060-069>072-079>082-131400-
SOUTHWEST NEBRASKA

CITY           SKY/WX    TMP DP  RH WIND       PRES   REMARKS
NORTH PLATTE   CLEAR     30  19  63 NW8       29.95R WCI  22
IMPERIAL       CLOUDY    50  14  23 NW20G32   30.00R
LEXINGTON      CLOUDY    46  20  35 NW25G33   29.89R
MCCOOK         CLOUDY    41  17  38 W10       29.96R
OGALLALA       CLEAR     47  14  25 NW20G26   30.00R
$$

NEZ005>010-023>029-035>040-094-131400-
NORTH CENTRAL NEBRASKA

CITY           SKY/WX    TMP DP  RH WIND       PRES   REMARKS
VALENTINE      CLEAR     45  21  38 NW18G32   29.88R
AINSWORTH      CLEAR     45  23  42 NW35G45   29.86R
BROKEN BOW     CLEAR     48  20  32 NW25G36   29.87R
O`NEILL        CLEAR     46  26  46 NW35G44   29.78R
ORD            CLEAR     49  21  33 NW28G48   29.81R
THEDFORD       CLEAR     47  21  35 NW23G31   29.91R
$$

NEZ041-046>049-061>064-073>077-083>087-131400-
SOUTH CENTRAL NEBRASKA

CITY           SKY/WX    TMP DP  RH WIND       PRES   REMARKS
GRAND ISLAND   CLOUDY    52  20  28 NW37G49   29.80R
AURORA         CLOUDY    51  20  28 NW32G43   29.78R
HASTINGS       PTCLDY    51  18  27 NW26G37   29.83R
HEBRON         CLOUDY    50  19  29 W13G20    29.79R
HOLDREGE       PTCLDY    46  22  38 NW15G22   29.88R
KEARNEY        PTCLDY    51  19  28 NW24G37   29.85R
$$

NEZ011>018-030>034-042>045-131400-
NORTHEAST NEBRASKA

CITY           SKY/WX    TMP DP  RH WIND       PRES   REMARKS
NORFOLK        CLEAR     49  26  41 NW31G48   29.69R
ALBION         CLEAR     50  25  37 NW37G49   29.75R
BLAIR          CLOUDY    47  27  45 W10G16    29.64R
COLUMBUS       PTCLDY    47  23  38 W15       29.73R
FREMONT        CLOUDY    44  26  48 W14       29.67R
TEKAMAH        CLOUDY    51  27  39 NW29G44   29.62R
WAYNE          CLEAR     48  25  39 NW28G44   29.66R
$$

NEZ050>053-065>068-078-088>093-131400-
SOUTHEAST NEBRASKA

CITY           SKY/WX    TMP DP  RH WIND       PRES   REMARKS
LINCOLN        CLOUDY    52  22  30 W18G29    29.72R
OMAHA EPPLEY   CLOUDY    49  24  37 NW15      29.64R
BEATRICE       PTCLDY    48  24  38 NW15      29.74R
FALLS CITY     CLEAR     40  22  48 W12       29.68S WCI  33
NEBRASKA CITY  PTCLDY    44  25  46 W15       29.67S
PLATTSMOUTH    CLOUDY    49  25  39 W17G23    29.65R
$$

NEZ044-045-051>053-067-131400-
OMAHA AREA

CITY           SKY/WX    TMP DP  RH WIND       PRES   REMARKS
OMAHA EPPLEY   CLOUDY    49  24  37 NW15      29.64R
BLAIR          CLOUDY    47  27  45 W10G16    29.64R
FREMONT        CLOUDY    44  26  48 W14       29.67R
MILLARD        CLOUDY    51  26  36 W14G20    29.65R
OFFUTT AFB     CLOUDY    47  24  41 W10       29.64R
PLATTSMOUTH    CLOUDY    49  25  39 W17G23    29.65R
WAHOO          FAIR      51  23  33 W22       29.68R
$$



USA.gov is the U.S. government's official web portal to all federal, state and local government web resources and services.